• In Deutschland
  • Länderverzeichnis
  • Für 7 Tage
  • Wassertemperatur
  • Satellitenkarten
  • Wetterkarte
  • Widgets
  • user-avatar
    Anmelden

    Stündliche Wetter Bad Birnbach

    Heute, 26 April, Donnerstag

    Zeit Temperatur Niederschläge Wind Luftdruck Luftfeuchtigkeit
    00:00 +13°C° 0,1 mm 1 m/S 727 mmHg 91%
    01:00 +13°C° 0,1 mm 1 m/S 728 mmHg 91%
    02:00 +13°C° 0,4 mm 2 m/S 728 mmHg 93%
    03:00 +13°C° 0,4 mm 2 m/S 728 mmHg 94%
    04:00 +12°C° 0,4 mm 2 m/S 728 mmHg 95%
    05:00 +12°C° 0,3 mm 2 m/S 728 mmHg 93%
    06:00 +12°C° 0,3 mm 2 m/S 728 mmHg 92%
    07:00 +11°C° 0,3 mm 3 m/S 728 mmHg 91%
    08:00 +11°C° 0,3 mm 3 m/S 729 mmHg 85%
    09:00 +11°C° 0,3 mm 4 m/S 729 mmHg 80%
    10:00 +11°C° 0,3 mm 4 m/S 729 mmHg 75%
    11:00 +12°C° 0,1 mm 4 m/S 730 mmHg 71%
    12:00 +12°C° 0,1 mm 5 m/S 730 mmHg 66%
    13:00 +13°C° 0,1 mm 5 m/S 730 mmHg 62%
    14:00 +13°C° 0 mm 5 m/S 730 mmHg 60%
    15:00 +13°C° 0 mm 5 m/S 730 mmHg 57%
    16:00 +14°C° 0 mm 5 m/S 730 mmHg 55%
    17:00 +13°C° 0 mm 4 m/S 730 mmHg 60%
    18:00 +11°C° 0 mm 3 m/S 730 mmHg 65%
    19:00 +10°C° 0 mm 2 m/S 730 mmHg 70%
    20:00 +9°C° 0 mm 2 m/S 731 mmHg 72%
    21:00 +9°C° 0 mm 1 m/S 731 mmHg 74%
    22:00 +8°C° 0 mm 1 m/S 731 mmHg 76%
    23:00 +8°C° 0 mm 1 m/S 731 mmHg 77%

    Morgen, 27 April, Freitag

    Zeit Temperatur Niederschläge Wind Luftdruck Luftfeuchtigkeit
    00:00 +8°C° 0 mm 1 m/S 731 mmHg 77%
    01:00 +8°C° 0 mm 1 m/S 731 mmHg 78%
    02:00 +7°C° 0 mm 1 m/S 731 mmHg 80%
    03:00 +7°C° 0 mm 1 m/S 730 mmHg 81%
    04:00 +6°C° 0 mm 1 m/S 730 mmHg 83%
    05:00 +7°C° 0 mm 1 m/S 729 mmHg 79%
    06:00 +8°C° 0 mm 2 m/S 729 mmHg 75%
    07:00 +9°C° 0 mm 2 m/S 729 mmHg 72%
    08:00 +12°C° 0 mm 2 m/S 728 mmHg 66%
    09:00 +13°C° 0 mm 3 m/S 728 mmHg 59%
    10:00 +15°C° 0 mm 4 m/S 727 mmHg 53%
    11:00 +18°C° 0 mm 4 m/S 727 mmHg 53%
    12:00 +19°C° 0 mm 4 m/S 726 mmHg 52%
    13:00 +20°C° 0 mm 4 m/S 726 mmHg 51%
    14:00 +21°C° 0 mm 3 m/S 725 mmHg 52%
    15:00 +21°C° 0 mm 3 m/S 725 mmHg 54%
    16:00 +22°C° 0 mm 3 m/S 724 mmHg 55%
    17:00 +20°C° 0,1 mm 3 m/S 724 mmHg 63%
    18:00 +18°C° 0,1 mm 2 m/S 724 mmHg 71%
    19:00 +16°C° 0,1 mm 1 m/S 724 mmHg 79%
    20:00 +16°C° 0,2 mm 1 m/S 725 mmHg 82%
    21:00 +15°C° 0,2 mm 1 m/S 725 mmHg 84%
    22:00 +14°C° 0,2 mm 1 m/S 726 mmHg 86%
    23:00 +14°C° 0,2 mm 1 m/S 726 mmHg 88%

    übermorgen, 28 April, Samstag

    Zeit Temperatur Niederschläge Wind Luftdruck Luftfeuchtigkeit
    00:00 +13°C° 0,2 mm 1 m/S 726 mmHg 89%
    01:00 +13°C° 0,2 mm 2 m/S 726 mmHg 91%
    02:00 +13°C° 0 mm 1 m/S 726 mmHg 91%
    03:00 +13°C° 0 mm 1 m/S 727 mmHg 92%
    04:00 +13°C° 0 mm 1 m/S 727 mmHg 92%
    05:00 +13°C° 0 mm 1 m/S 727 mmHg 91%
    06:00 +14°C° 0 mm 1 m/S 727 mmHg 90%
    07:00 +14°C° 0 mm 1 m/S 727 mmHg 89%
    08:00 +15°C° 0 mm 1 m/S 727 mmHg 84%
    09:00 +16°C° 0 mm 1 m/S 728 mmHg 79%
    10:00 +16°C° 0 mm 2 m/S 728 mmHg 74%
    11:00 +17°C° 0 mm 2 m/S 728 mmHg 70%
    12:00 +18°C° 0 mm 2 m/S 727 mmHg 66%
    13:00 +19°C° 0 mm 2 m/S 727 mmHg 62%
    14:00 +20°C° 0 mm 2 m/S 727 mmHg 61%
    15:00 +20°C° 0 mm 2 m/S 726 mmHg 61%
    16:00 +21°C° 0 mm 1 m/S 726 mmHg 61%
    17:00 +19°C° 0 mm 2 m/S 726 mmHg 68%
    18:00 +17°C° 0 mm 2 m/S 726 mmHg 76%
    19:00 +16°C° 0 mm 2 m/S 726 mmHg 83%
    20:00 +15°C° 0,1 mm 1 m/S 726 mmHg 86%
    21:00 +14°C° 0,1 mm 1 m/S 726 mmHg 89%
    22:00 +13°C° 0,1 mm 1 m/S 726 mmHg 92%
    23:00 +13°C° 0,1 mm 1 m/S 726 mmHg 92%

    29 April, Sonntag

    Zeit Temperatur Niederschläge Wind Luftdruck Luftfeuchtigkeit
    00:00 +12°C° 0,1 mm 1 m/S 725 mmHg 93%
    01:00 +11°C° 0,1 mm 1 m/S 725 mmHg 94%
    02:00 +11°C° 0 mm 1 m/S 725 mmHg 95%
    03:00 +11°C° 0 mm 1 m/S 724 mmHg 95%
    04:00 +11°C° 0 mm 1 m/S 724 mmHg 95%
    05:00 +12°C° 0 mm 1 m/S 724 mmHg 93%
    06:00 +13°C° 0 mm 1 m/S 724 mmHg 90%
    07:00 +14°C° 0 mm 1 m/S 723 mmHg 88%
    08:00 +16°C° 0 mm 1 m/S 723 mmHg 79%
    09:00 +19°C° 0 mm 2 m/S 723 mmHg 70%
    10:00 +21°C° 0 mm 2 m/S 723 mmHg 61%
    11:00 +23°C° 0 mm 2 m/S 722 mmHg 57%
    12:00 +25°C° 0 mm 2 m/S 722 mmHg 54%
    13:00 +26°C° 0 mm 3 m/S 721 mmHg 50%
    14:00 +26°C° 0 mm 3 m/S 721 mmHg 50%
    15:00 +27°C° 0 mm 3 m/S 720 mmHg 49%
    16:00 +27°C° 0 mm 3 m/S 720 mmHg 49%
    17:00 +25°C° 0 mm 3 m/S 719 mmHg 56%
    18:00 +22°C° 0 mm 3 m/S 719 mmHg 62%
    19:00 +20°C° 0 mm 2 m/S 719 mmHg 69%
    20:00 +19°C° 0 mm 2 m/S 719 mmHg 70%
    21:00 +17°C° 0 mm 2 m/S 719 mmHg 71%
    22:00 +16°C° 0 mm 2 m/S 719 mmHg 72%
    23:00 +15°C° 0 mm 2 m/S 719 mmHg 74%

    30 April, Montag

    Zeit Temperatur Niederschläge Wind Luftdruck Luftfeuchtigkeit
    00:00 +14°C° 0 mm 2 m/S 719 mmHg 75%
    01:00 +14°C° 0 mm 2 m/S 719 mmHg 77%
    02:00 +13°C° 0 mm 2 m/S 719 mmHg 80%
    03:00 +13°C° 0 mm 2 m/S 720 mmHg 83%
    04:00 +12°C° 0 mm 3 m/S 720 mmHg 87%
    05:00 +12°C° 0,1 mm 3 m/S 721 mmHg 86%
    06:00 +12°C° 0,1 mm 4 m/S 721 mmHg 85%
    07:00 +12°C° 0,1 mm 4 m/S 722 mmHg 85%
    08:00 +11°C° 0,8 mm 4 m/S 723 mmHg 87%
    09:00 +9°C° 0,8 mm 5 m/S 723 mmHg 89%
    10:00 +8°C° 0,8 mm 5 m/S 724 mmHg 91%
    11:00 +8°C° 0,7 mm 5 m/S 725 mmHg 89%
    12:00 +10°C° 0,7 mm 4 m/S 725 mmHg 88%
    13:00 +10°C° 0,7 mm 4 m/S 726 mmHg 86%
    14:00 +11°C° 0,1 mm 4 m/S 726 mmHg 79%
    15:00 +12°C° 0,1 mm 3 m/S 726 mmHg 71%
    16:00 +14°C° 0,1 mm 3 m/S 726 mmHg 64%
    17:00 +13°C° 0 mm 2 m/S 726 mmHg 69%
    18:00 +12°C° 0 mm 1 m/S 727 mmHg 73%
    19:00 +11°C° 0 mm 1 m/S 727 mmHg 77%
    20:00 +10°C° 0 mm 1 m/S 727 mmHg 80%
    21:00 +9°C° 0 mm 1 m/S 727 mmHg 83%
    22:00 +8°C° 0 mm 1 m/S 728 mmHg 86%
    23:00 +9°C° 0 mm 1 m/S 728 mmHg 85%

    1 Mai, Dienstag

    Zeit Temperatur Niederschläge Wind Luftdruck Luftfeuchtigkeit
    00:00 +9°C° 0 mm 1 m/S 728 mmHg 84%
    01:00 +9°C° 0 mm 1 m/S 728 mmHg 83%
    02:00 +9°C° 0 mm 1 m/S 728 mmHg 84%
    03:00 +8°C° 0 mm 1 m/S 728 mmHg 84%
    04:00 +8°C° 0 mm 1 m/S 729 mmHg 85%
    05:00 +9°C° 0 mm 1 m/S 729 mmHg 82%
    06:00 +10°C° 0 mm 1 m/S 729 mmHg 78%
    07:00 +11°C° 0 mm 1 m/S 729 mmHg 74%
    08:00 +13°C° 0 mm 1 m/S 728 mmHg 67%
    09:00 +15°C° 0 mm 2 m/S 728 mmHg 60%
    10:00 +17°C° 0 mm 2 m/S 728 mmHg 53%
    11:00 +18°C° 0 mm 2 m/S 727 mmHg 52%
    12:00 +19°C° 0 mm 2 m/S 727 mmHg 50%
    13:00 +20°C° 0 mm 2 m/S 727 mmHg 49%
    14:00 +20°C° 0 mm 2 m/S 726 mmHg 50%
    15:00 +20°C° 0 mm 2 m/S 726 mmHg 51%
    16:00 +20°C° 0 mm 2 m/S 726 mmHg 52%
    17:00 +18°C° 0 mm 2 m/S 725 mmHg 59%
    18:00 +17°C° 0 mm 2 m/S 725 mmHg 66%
    19:00 +15°C° 0 mm 1 m/S 725 mmHg 72%
    20:00 +14°C° 0 mm 1 m/S 725 mmHg 75%
    21:00 +13°C° 0 mm 1 m/S 726 mmHg 77%
    22:00 +12°C° 0 mm 1 m/S 726 mmHg 80%
    23:00 +12°C° 0 mm 1 m/S 726 mmHg 82%
    Mehr zeigen